Weather History for Ft. Stewart, GA

Change the Weather History Date:

Thursday, November 7, 2013

  Actual Average Record
Temperature  
Mean Temperature 68 °F -  
Max Temperature 78 °F 72 °F 85 °F (1986)
Min Temperature 57 °F 47 °F 32 °F (1967)
Cooling Degree Days 2    
Growing Degree Days 18 (Base 50)    
Moisture  
Dew Point 62 °F    
Average Humidity 90    
Maximum Humidity 100    
Minimum Humidity 72    
Precipitation  
Precipitation 0.00 in - - ()
Sea Level Pressure  
Sea Level Pressure 30.03 in    
Wind  
Wind Speed 3 mph (WNW)    
Max Wind Speed 12 mph    
Max Gust Speed 16 mph    
Visibility 10 miles    
Events      
Averages and records for this station are not official NWS values.
T = Trace of Precipitation, MM = Missing Value Source: NWS Daily Summary

Daily Weather History Graph

Daily Weather History Graph

Search for Another Location

Airport:

Trip Planner

Search our weather history database for the weather conditions in past years. The results will help you decide how hot, cold, wet, or windy it might be!

Date:

Astronomy

Nov. 07, 2013 Rise Set
Actual Time 6:47 AM EST 5:31 PM EST
Civil Twilight 6:22 AM EST 5:57 PM EST
Nautical Twilight 5:53 AM EST 6:26 PM EST
Astronomical Twilight 5:24 AM EST 6:54 PM EST
Moon 10:52 AM EST (11/7) 9:43 PM EST (11/7)
Length of Visible Light 11h 34m
Length of Day
10h 43m
Waxing Crescent, 22% of the Moon is Illuminated
Nov 7
Waxing Crescent
Nov 10
First Quarter
Nov 17
Full
Nov 25
Last Quarter
Dec 2
New

Hourly Weather History & Observations

Time (EST) Temp. Dew Point Humidity Pressure Visibility Wind Dir Wind Speed Gust Speed Precip Events Conditions
12:58 AM 58.8 °F 58.8 °F 100% 30.09 in 10.0 mi Calm Calm - N/A   Clear
1:58 AM 58.6 °F 58.6 °F 100% 30.08 in 10.0 mi Calm Calm - N/A   Scattered Clouds
2:58 AM 57.9 °F 57.9 °F 100% 30.06 in 10.0 mi Calm Calm - N/A   Clear
3:58 AM 58.1 °F 58.1 °F 100% 30.05 in 10.0 mi Calm Calm - N/A   Clear
4:58 AM 57.6 °F 57.6 °F 100% 30.04 in 10.0 mi Calm Calm - N/A   Partly Cloudy
5:18 AM 57.2 °F 57.2 °F 100% 30.03 in 5.0 mi Calm Calm - N/A   Mostly Cloudy
5:23 AM 57.2 °F 57.2 °F 100% 30.03 in 4.0 mi Calm Calm - N/A   Mostly Cloudy
5:28 AM 57.2 °F 57.2 °F 100% 30.03 in 6.0 mi Calm Calm - N/A   Mostly Cloudy
5:33 AM 57.2 °F 57.2 °F 100% 30.02 in 10.0 mi Calm Calm - N/A   Mostly Cloudy
5:58 AM 57.0 °F 56.8 °F 99% 30.03 in 10.0 mi Calm Calm - N/A   Mostly Cloudy
6:58 AM 57.2 °F 57.0 °F 99% 30.06 in 10.0 mi Calm Calm - N/A   Overcast
7:58 AM 59.2 °F 59.2 °F 100% 30.07 in 10.0 mi Calm Calm - N/A   Scattered Clouds
8:58 AM 61.3 °F 61.3 °F 100% 30.07 in 10.0 mi Calm Calm - N/A   Scattered Clouds
9:58 AM 64.0 °F 64.0 °F 100% 30.07 in 10.0 mi WSW 2.3 mph - N/A   Scattered Clouds
10:58 AM 70.5 °F 67.5 °F 90% 30.06 in 10.0 mi Variable 2.3 mph - N/A   Scattered Clouds
11:58 AM 76.5 °F 68.7 °F 77% 30.04 in 10.0 mi Variable 4.6 mph - N/A   Mostly Cloudy
12:58 PM 77.7 °F 68.4 °F 73% 30.01 in 10.0 mi WSW 8.1 mph - N/A   Clear
1:58 PM 76.1 °F 68.5 °F 77% 30.00 in 10.0 mi WNW 5.8 mph - N/A   Overcast
2:58 PM 78.1 °F 69.3 °F 74% 29.99 in 10.0 mi WNW 6.9 mph - N/A   Mostly Cloudy
3:58 PM 77.4 °F 69.1 °F 76% 29.97 in 10.0 mi NW 10.4 mph - N/A   Clear
4:38 PM 75.2 °F 68.0 °F 78% 29.98 in 10.0 mi WNW 8.1 mph - N/A   Overcast
4:43 PM 75.2 °F 68.0 °F 78% 29.98 in 10.0 mi NW 6.9 mph - N/A   Overcast
4:58 PM 74.1 °F 68.7 °F 83% 29.99 in 10.0 mi West 6.9 mph - N/A   Overcast
5:18 PM 73.4 °F 68.0 °F 83% 29.98 in 10.0 mi WNW 6.9 mph - N/A   Overcast
5:28 PM 73.4 °F 68.0 °F 83% 29.99 in 10.0 mi WNW 6.9 mph - N/A   Overcast
5:58 PM 71.8 °F 67.5 °F 86% 30.01 in 10.0 mi WNW 6.9 mph - N/A   Overcast
6:58 PM 69.3 °F 66.2 °F 90% 30.03 in 10.0 mi West 5.8 mph - N/A   Partly Cloudy
7:03 PM 68.0 °F 66.2 °F 94% 30.02 in 9.0 mi West 4.6 mph - N/A   Partly Cloudy
7:13 PM 68.0 °F 66.2 °F 94% 30.02 in 9.0 mi WNW 5.8 mph - N/A   Partly Cloudy
7:58 PM 65.8 °F 64.4 °F 95% 30.04 in 10.0 mi West 4.6 mph - N/A   Clear
8:58 PM 63.7 °F 63.5 °F 99% 30.05 in 10.0 mi WNW 9.2 mph - N/A   Clear
9:58 PM 63.0 °F 55.9 °F 78% 30.06 in 10.0 mi NW 11.5 mph - N/A   Clear
10:58 PM 59.9 °F 50.9 °F 72% 30.07 in 10.0 mi NW 10.4 mph 16.1 mph N/A   Clear
11:58 PM 57.6 °F 48.7 °F 72% 30.08 in 10.0 mi NW 8.1 mph - N/A   Clear